Location: Sternwarte ZA, Rosenfeld-Brittheim
(48.2889°N, 8.6789°E)
Time: 19:55:00
(UTC+02:00)

ISS - Pass Details

Date: 15 July 2019
Orbit: 409 x 418 km, 51.6° (Epoch: 20 July)

Event Time Altitude Azimuth Distance (km) Brightness Sun altitude
Exits shadow 00:47:57 68° 92° (E) 448 -3.8 -19.4°
Drops below altitude 10° 00:50:56 10° 69° (ENE) 1,483 -0.9 -19.5°
Sets 00:53:01 0° 68° (ENE) 2,346 0.2 -19.6°
